Regional Weather Roundup
Issued by NWS

Home | Current Version | Previous Version | Text Only | Print | Product List | Glossary On
Versions: 1 2 3 4 5 6 7 8 9 10 11 12 13 14 15 16 17 18 19 20 21 22 23 24 25 26 27 28 29 30 31 32 33 34 35 36 37 38 39 40 41 42 43 44 45 46 47 48 49 50
000
ASCA44 KEWX 261620
RWRMX

LATIN AMERICA AND CARIBBEAN REGIONAL WEATHER ROUNDUP
NATIONAL WEATHER SERVICE AUSTIN/SAN ANTONIO TX
1100 AM CDT TUE MAY 26 2015

NOTE: "FAIR" INDICATED FEW OR NO CLOUDS BELOW 12,000 FEET WITH NO
SIGNIFICANT WEATHER AND/OR OBSTRUCTIONS TO VISIBILITY.

BAJA CALIFORNIA

CITY           SKY/WX    TMP DP  RH WIND       PRES   REMARKS

NORTHWESTERN MEXICO

CITY           SKY/WX    TMP DP  RH WIND       PRES   REMARKS

NORTHEASTERN MEXICO

CITY           SKY/WX    TMP DP  RH WIND       PRES   REMARKS

WESTERN MEXICO

CITY           SKY/WX    TMP DP  RH WIND       PRES   REMARKS

CENTRAL MEXICO

CITY           SKY/WX    TMP DP  RH WIND       PRES   REMARKS

SOUTHERN MEXICO

CITY           SKY/WX    TMP DP  RH WIND       PRES   REMARKS

YUCATAN PENINSULA

CITY           SKY/WX    TMP DP  RH WIND       PRES   REMARKS
CANCUN         PTSUNNY   88  75  66 E12       30.06R HX  97
COZUMEL        MOSUNNY   84  73  70 SE13      30.05S HX  91
MERIDA         PTSUNNY   90  70  51 SE16      29.99S HX  95
TAPACHULA      PTSUNNY   91  79  66 CALM      29.91S HX 107

CENTRAL AMERICA

CITY           SKY/WX    TMP DP  RH WIND       PRES   REMARKS
BELIZE CITY    MOSUNNY   86  77  74 E15       29.99R HX  97

CARIBBEAN

CITY           SKY/WX    TMP DP  RH WIND       PRES   REMARKS
ARUBA          MOSUNNY   88  75  66 E22       29.92F HX  97
CURACAO        MOSUNNY   86  73  66 E13       29.97S HX  93
KINGSTON       MOSUNNY   86  73  66 SE18      30.00S HX  93
NASSAU         MOSUNNY   84  72  65 E12       30.18F
SAN JUAN       MOSUNNY   84  73  70 NE9       30.05F HX  91
SANTO DOMINGO  PTSUNNY   86  73  66 SW9       30.00F HX  93
ST. CROIX      LGT RAIN  81  73  78 SE8       30.04
ST. KITTS      MOSUNNY   79  73  83 NE6       30.00F
ST. MAARTEN    LGT RAIN  79  72  78 SW6       30.00F
ST. THOMAS     MOSUNNY   88  72  58 N12       30.02  HX  94

$$



USA.gov is the U.S. government's official web portal to all federal, state and local government web resources and services.